COSMOS 1261 DEB, 35507

Orbit data source: Space-Track

COSMOS 1261 DEB, 35507 is space debris originally from a launch on Tue, 31 Mar 1981 UTC launched from the Plesetsk Missile And Space Complex (PKMTR). Debris objects in space refer to the collection of defunct objects orbiting the Earth. Examples of debris include non-operational satellites, rocket bodies, and fragments generated from explosions, collisions, or faulty payload assembly.

Loading next visibility...
Identifier
35507, 1981-031N
Orbit
Molniya
Country
Flag of CISCIS
Related business
Manufacturer
Unknown
Mission
Spacecraft
Bus & Motor
Unknown
Mass
Unknown
Launch date (UTC)
1981-03-31 (45 years ago)
Launch vehicle
Unknown
Launch site
Plesetsk Missile And Space Complex (PKMTR)
Object type
Payload
Rocket body
Debris
Shape & HBR
Unknown shape, 0.3 m
Radar Cross Section
Medium (>0.1 m² and <1 m²)

Expand to show TLE details & history
Last TLE update: 3 days ago

TLE from 3 days ago
0 COSMOS 1261 DEB
1 35507U 81031N   26130.55862803  .00000820  00000-0  11517-2 0  9999
2 35507  61.8626 303.5359 7410524  43.2382 355.3664  2.01944792 97662
Epoch: 2026-05-10T13:24Z
TLE epoch observation values (Epoch: 2026-05-10T13:24:25.461Z)
Latitude
0.00023°
Longitude
-125.97516°
Altitude
1,360.004 km
Speed
9.379 km/s
True Right ascension
20h 13m 57s
True Declination
0° 00' 01"
Sunlit
Object was in daylight at epoch
Visualization orbit readout
Latitude
Unknown
Longitude
Unknown
Altitude
Unknown
Speed
Unknown
Apparent Right ascension
Unknown
Apparent Declination
Unknown
Sunlit
N/A
Visualization observer readout
Local Sidereal Time
15:26:24
Azimuth
Unknown
Elevation
Unknown
Doppler factor
Unknown
Orbital elements
Apogee altitude
39,652.163 km
Perigee altitude
467.973 km
Semi-major axis
26,438.205 km
Eccentricity
0.74105
Inclination
61.8626°
RAAN
303.5359°
Arg. of periapsis
43.2382°
True anomaly
317.26021°
Mean anomaly
355.3664°
Eccentric anomaly
342.83726°
Mean motion
0.50489 °/min
Orbital period
713.03 mins
BSTAR
0.0011517
Loading maneuver chart data...
Computing Atmospheric mass density...
Loading historical data...
Loading historical data...
Loading historical data...
Loading historical data...
Loading historical data...
Loading historical data...
Loading historical data...

Documentation

Showing up to 5 results
|